Hourly Weather Georgetown

Today, 16 April, Friday

Time Temperature Precipitation Wind Pressure Humidity
00:00 +30°C° 0 mm 5 mps 731 mmHg 24%
01:00 +30°C° 0 mm 5 mps 731 mmHg 24%
02:00 +29°C° 0 mm 6 mps 731 mmHg 23%
03:00 +29°C° 0 mm 6 mps 730 mmHg 23%
04:00 +28°C° 0 mm 7 mps 730 mmHg 23%
05:00 +28°C° 0 mm 7 mps 731 mmHg 24%
06:00 +29°C° 0 mm 7 mps 731 mmHg 24%
07:00 +29°C° 0 mm 6 mps 732 mmHg 24%
08:00 +32°C° 0 mm 6 mps 732 mmHg 24%
09:00 +34°C° 0 mm 6 mps 732 mmHg 24%
10:00 +35°C° 0 mm 6 mps 733 mmHg 23%
11:00 +36°C° 0 mm 5 mps 732 mmHg 23%
12:00 +36°C° 0 mm 4 mps 731 mmHg 24%
13:00 +37°C° 0 mm 3 mps 731 mmHg 24%
14:00 +37°C° 0 mm 3 mps 730 mmHg 23%
15:00 +38°C° 0 mm 2 mps 730 mmHg 22%
16:00 +38°C° 0 mm 2 mps 729 mmHg 21%
17:00 +36°C° 0 mm 2 mps 729 mmHg 24%
18:00 +34°C° 0 mm 2 mps 729 mmHg 28%
19:00 +33°C° 0 mm 3 mps 729 mmHg 31%
20:00 +33°C° 0 mm 4 mps 730 mmHg 29%
21:00 +32°C° 0 mm 4 mps 730 mmHg 26%
22:00 +32°C° 0 mm 5 mps 730 mmHg 23%
23:00 +32°C° 0 mm 6 mps 730 mmHg 23%

Tomorrow, 17 April, Saturday

Time Temperature Precipitation Wind Pressure Humidity
00:00 +32°C° 0 mm 6 mps 730 mmHg 22%
01:00 +32°C° 0 mm 7 mps 730 mmHg 22%
02:00 +30°C° 0 mm 7 mps 730 mmHg 22%
03:00 +31°C° 0 mm 8 mps 730 mmHg 22%
04:00 +31°C° 0 mm 8 mps 730 mmHg 22%
05:00 +31°C° 0 mm 8 mps 730 mmHg 24%
06:00 +31°C° 0 mm 8 mps 731 mmHg 25%
07:00 +31°C° 0 mm 8 mps 731 mmHg 27%
08:00 +32°C° 0 mm 7 mps 732 mmHg 26%
09:00 +34°C° 0 mm 7 mps 732 mmHg 25%
10:00 +35°C° 0 mm 6 mps 732 mmHg 24%
11:00 +36°C° 0 mm 5 mps 732 mmHg 24%
12:00 +37°C° 0 mm 4 mps 731 mmHg 23%
13:00 +38°C° 0 mm 3 mps 730 mmHg 23%
14:00 +38°C° 0 mm 3 mps 730 mmHg 21%
15:00 +38°C° 0 mm 3 mps 729 mmHg 19%
16:00 +39°C° 0 mm 2 mps 729 mmHg 18%
17:00 +37°C° 0 mm 2 mps 729 mmHg 19%
18:00 +35°C° 0 mm 1 mps 729 mmHg 21%
19:00 +33°C° 0 mm 1 mps 729 mmHg 23%
20:00 +34°C° 0 mm 3 mps 730 mmHg 23%
21:00 +34°C° 0 mm 4 mps 730 mmHg 23%
22:00 +33°C° 0 mm 6 mps 731 mmHg 22%
23:00 +33°C° 0 mm 6 mps 730 mmHg 23%

Day after tomorrow, 18 April, Sunday

Time Temperature Precipitation Wind Pressure Humidity
00:00 +32°C° 0 mm 5 mps 730 mmHg 23%
01:00 +30°C° 0 mm 5 mps 730 mmHg 24%
02:00 +30°C° 0 mm 5 mps 730 mmHg 24%
03:00 +29°C° 0 mm 4 mps 730 mmHg 24%
04:00 +29°C° 0 mm 4 mps 730 mmHg 24%
05:00 +29°C° 0 mm 4 mps 730 mmHg 26%
06:00 +30°C° 0 mm 4 mps 731 mmHg 28%
07:00 +30°C° 0 mm 4 mps 732 mmHg 30%
08:00 +32°C° 0 mm 4 mps 732 mmHg 28%
09:00 +34°C° 0 mm 4 mps 732 mmHg 27%
10:00 +35°C° 0 mm 4 mps 732 mmHg 25%
11:00 +36°C° 0 mm 4 mps 732 mmHg 24%
12:00 +37°C° 0 mm 3 mps 731 mmHg 22%
13:00 +38°C° 0 mm 2 mps 731 mmHg 20%
14:00 +38°C° 0 mm 2 mps 730 mmHg 20%
15:00 +38°C° 0 mm 2 mps 730 mmHg 19%
16:00 +38°C° 0 mm 2 mps 729 mmHg 19%
17:00 +37°C° 0 mm 2 mps 729 mmHg 19%
18:00 +36°C° 0 mm 2 mps 729 mmHg 20%
19:00 +35°C° 0 mm 3 mps 729 mmHg 21%
20:00 +35°C° 0 mm 3 mps 730 mmHg 21%
21:00 +34°C° 0 mm 4 mps 730 mmHg 22%
22:00 +34°C° 0 mm 5 mps 731 mmHg 22%
23:00 +33°C° 0 mm 5 mps 730 mmHg 23%

19 April, Monday

Time Temperature Precipitation Wind Pressure Humidity
00:00 +33°C° 0 mm 4 mps 730 mmHg 23%
01:00 +32°C° 0 mm 4 mps 730 mmHg 24%
02:00 +32°C° 0 mm 5 mps 730 mmHg 24%
03:00 +30°C° 0 mm 5 mps 730 mmHg 24%
04:00 +30°C° 0 mm 6 mps 730 mmHg 24%
05:00 +30°C° 0 mm 5 mps 730 mmHg 24%
06:00 +30°C° 0 mm 4 mps 731 mmHg 24%
07:00 +30°C° 0 mm 4 mps 731 mmHg 24%
08:00 +32°C° 0 mm 4 mps 731 mmHg 26%
09:00 +34°C° 0 mm 4 mps 732 mmHg 27%
10:00 +35°C° 0 mm 4 mps 732 mmHg 28%
11:00 +35°C° 0 mm 4 mps 731 mmHg 26%
12:00 +36°C° 0 mm 3 mps 731 mmHg 24%
13:00 +37°C° 0 mm 2 mps 730 mmHg 22%
14:00 +37°C° 0 mm 2 mps 730 mmHg 22%
15:00 +37°C° 0 mm 3 mps 729 mmHg 22%
16:00 +37°C° 0 mm 3 mps 729 mmHg 22%
17:00 +36°C° 0 mm 3 mps 729 mmHg 23%
18:00 +35°C° 0 mm 3 mps 729 mmHg 24%
19:00 +34°C° 0 mm 4 mps 729 mmHg 25%
20:00 +34°C° 0 mm 4 mps 730 mmHg 24%
21:00 +33°C° 0 mm 4 mps 730 mmHg 23%
22:00 +33°C° 0 mm 4 mps 730 mmHg 22%
23:00 +33°C° 0 mm 4 mps 730 mmHg 23%

20 April, Tuesday

Time Temperature Precipitation Wind Pressure Humidity
00:00 +32°C° 0 mm 5 mps 730 mmHg 24%
01:00 +32°C° 0 mm 5 mps 729 mmHg 25%
02:00 +32°C° 0 mm 5 mps 729 mmHg 25%
03:00 +30°C° 0 mm 4 mps 729 mmHg 24%
04:00 +30°C° 0 mm 4 mps 729 mmHg 24%
05:00 +32°C° 0 mm 4 mps 729 mmHg 25%
06:00 +31°C° 0 mm 3 mps 730 mmHg 25%
07:00 +31°C° 0 mm 3 mps 730 mmHg 26%
08:00 +33°C° 0 mm 3 mps 731 mmHg 25%
09:00 +35°C° 0 mm 3 mps 731 mmHg 24%
10:00 +36°C° 0 mm 2 mps 731 mmHg 23%
11:00 +36°C° 0 mm 3 mps 731 mmHg 24%
12:00 +36°C° 0 mm 3 mps 730 mmHg 24%
13:00 +37°C° 0 mm 4 mps 730 mmHg 24%
14:00 +37°C° 0 mm 4 mps 729 mmHg 24%
15:00 +37°C° 0 mm 3 mps 729 mmHg 24%
16:00 +37°C° 0 mm 3 mps 728 mmHg 24%
17:00 +36°C° 0 mm 3 mps 728 mmHg 25%
18:00 +34°C° 0 mm 3 mps 728 mmHg 27%
19:00 +33°C° 0 mm 3 mps 728 mmHg 28%
20:00 +33°C° 0 mm 3 mps 729 mmHg 26%
21:00 +33°C° 0 mm 4 mps 729 mmHg 23%
22:00 +33°C° 0 mm 4 mps 730 mmHg 21%
23:00 +33°C° 0 mm 4 mps 729 mmHg 21%

21 April, Wednesday

Time Temperature Precipitation Wind Pressure Humidity
00:00 +32°C° 0 mm 4 mps 729 mmHg 22%
01:00 +30°C° 0 mm 5 mps 729 mmHg 23%
02:00 +30°C° 0 mm 5 mps 729 mmHg 23%
03:00 +30°C° 0 mm 6 mps 729 mmHg 23%
04:00 +30°C° 0 mm 6 mps 729 mmHg 24%
05:00 +30°C° 0 mm 6 mps 730 mmHg 25%
06:00 +30°C° 0 mm 6 mps 730 mmHg 26%
07:00 +30°C° 0 mm 7 mps 731 mmHg 28%
08:00 +32°C° 0 mm 6 mps 731 mmHg 30%
09:00 +33°C° 0 mm 5 mps 732 mmHg 33%
10:00 +34°C° 0 mm 5 mps 733 mmHg 35%
11:00 +34°C° 0 mm 4 mps 732 mmHg 33%
12:00 +35°C° 0 mm 4 mps 731 mmHg 30%
13:00 +35°C° 0 mm 3 mps 731 mmHg 28%
14:00 +35°C° 0 mm 3 mps 730 mmHg 27%
15:00 +36°C° 0 mm 4 mps 729 mmHg 26%
16:00 +36°C° 0 mm 4 mps 729 mmHg 26%
17:00 +35°C° 0 mm 4 mps 729 mmHg 27%
18:00 +34°C° 0 mm 4 mps 729 mmHg 28%
19:00 +33°C° 0 mm 4 mps 729 mmHg 29%
20:00 +33°C° 0 mm 4 mps 729 mmHg 27%
21:00 +33°C° 0 mm 4 mps 730 mmHg 26%
22:00 +32°C° 0 mm 4 mps 730 mmHg 24%
23:00 +32°C° 0 mm 4 mps 730 mmHg 24%
Show more